Location: Unspecified
(31.6710°N, 0.0000°E)
Time: 04:39:19
(UTC+00:00)

Vanguard 1 - All Passes

Search period start: 05 April 2026 00:00
Search period end: 15 April 2026 00:00
Orbit: 654 x 3817 km, 34.2° (Epoch: 28 March)

Date Brightness Start Highest point End Pass type
(mag) Time Alt. Az. Time Alt. Az. Time Alt. Az.
5 Apr - 01:47:20 10° WSW 02:08:19 73° SSE 02:20:11 10° ENE visible
5 Apr - 04:15:51 10° W 04:31:57 79° N 04:40:15 10° E visible
5 Apr - 06:43:29 10° WNW 06:53:55 87° SSW 06:59:42 10° ESE daylight
5 Apr - 09:08:36 10° W 09:13:25 22° SW 09:17:09 10° SSE daylight
5 Apr - 21:25:30 10° S 21:37:53 17° SE 21:49:13 10° ESE visible
5 Apr - 23:41:52 10° SSW 00:03:05 47° SSE 00:17:58 10° E visible
6 Apr - 02:07:08 10° WSW 02:28:01 82° SSE 02:39:34 10° ENE visible
6 Apr - 04:36:09 10° W 04:51:37 78° N 04:59:36 10° E visible
6 Apr - 07:03:23 10° WNW 07:13:16 72° SSW 07:18:51 10° ESE daylight
6 Apr - 09:29:26 10° WSW 09:32:16 14° SW 09:34:44 10° SSW daylight
6 Apr - 21:41:23 10° S 21:57:32 24° SE 22:11:46 10° E visible
7 Apr - 00:00:38 10° SW 00:22:47 56° SSE 00:37:45 10° ENE visible
7 Apr - 02:27:11 10° WSW 02:47:45 89° SSE 02:58:57 10° ENE visible
7 Apr - 04:56:25 10° W 05:11:17 79° N 05:18:57 10° E visible
7 Apr - 07:23:16 10° WNW 07:32:28 55° SSW 07:37:52 10° SE daylight
7 Apr - 21:58:29 10° SSW 22:17:05 31° SE 22:33:01 10° E visible
8 Apr - 00:19:46 10° SW 00:42:31 65° SSE 00:57:22 10° ENE visible
8 Apr - 02:47:24 10° WSW 03:07:31 85° N 03:18:20 10° ENE visible
8 Apr - 05:16:37 10° W 05:30:54 84° N 05:38:16 10° E visible
8 Apr - 07:43:15 10° WNW 07:51:31 40° SW 07:56:39 10° SSE daylight
8 Apr - 20:08:21 10° SE 20:11:51 10° SE 20:15:20 10° ESE visible
8 Apr - 22:16:18 10° SSW 22:36:39 39° SE 22:53:35 10° E visible
9 Apr - 00:39:14 10° SW 01:02:16 74° SSE 01:16:54 10° ENE visible
9 Apr - 03:07:45 10° W 03:27:19 81° N 03:37:43 10° E visible
9 Apr - 05:36:45 10° WNW 05:50:25 87° SSW 05:57:32 10° ESE daylight
9 Apr - 08:03:24 10° W 08:10:24 28° SW 08:15:07 10° SSE daylight
9 Apr - 20:19:25 10° SSE 20:31:21 17° SE 20:43:13 10° E visible
9 Apr - 22:34:36 10° SSW 22:56:14 48° SE 23:13:43 10° ENE visible
10 Apr - 00:58:58 10° WSW 01:22:04 82° SSE 01:36:22 10° ENE visible
10 Apr - 03:28:08 10° W 03:47:07 80° N 03:57:07 10° E visible
10 Apr - 05:56:48 10° WNW 06:09:51 75° SSW 06:16:42 10° ESE daylight
10 Apr - 08:24:02 10° W 08:29:10 18° SW 08:33:02 10° S daylight
10 Apr - 20:35:12 10° S 20:50:44 24° SE 21:06:06 10° E visible
10 Apr - 22:53:19 10° SW 23:15:52 57° SSE 23:33:36 10° ENE visible
11 Apr - 01:18:57 10° WSW 01:41:56 89° SSE 01:55:50 10° ENE visible
11 Apr - 03:48:31 10° W 04:06:55 81° N 04:16:31 10° E visible
11 Apr - 06:16:50 10° WNW 06:29:06 61° SSW 06:35:44 10° SE daylight
11 Apr - 08:46:18 10° WSW 08:47:51 11° SW 08:49:16 10° SW daylight
11 Apr - 20:52:15 10° S 21:10:05 31° SE 21:27:34 10° E visible
11 Apr - 23:12:22 10° SW 23:35:34 66° SSE 23:53:19 10° ENE visible
12 Apr - 01:39:07 10° WSW 02:01:51 86° N 02:15:17 10° E visible
12 Apr - 04:08:50 10° W 04:26:39 85° N 04:35:53 10° E visible
12 Apr - 06:36:55 10° WNW 06:48:11 47° SW 06:54:33 10° SE daylight
12 Apr - 21:10:01 10° SSW 21:29:27 39° SE 21:48:18 10° E visible
12 Apr - 23:31:43 10° SW 23:55:21 75° SSE 00:12:57 10° ENE visible
13 Apr - 01:59:26 10° W 02:21:48 82° N 02:34:46 10° E visible
13 Apr - 04:29:04 10° WNW 04:46:18 88° SSW 04:55:11 10° ESE visible
13 Apr - 06:57:09 10° WNW 07:07:05 34° SW 07:13:06 10° SSE daylight
13 Apr - 19:14:35 10° SSE 19:24:50 15° SE 19:35:48 10° E visible
13 Apr - 21:28:15 10° SSW 21:48:52 48° SE 22:08:36 10° ENE visible
13 Apr - 23:51:21 10° WSW 00:15:14 82° SSE 00:32:32 10° ENE visible
14 Apr - 02:19:48 10° W 02:41:46 81° N 02:54:15 10° E visible
14 Apr - 04:49:15 10° WNW 05:05:49 78° SSW 05:14:23 10° ESE visible
14 Apr - 07:17:42 10° W 07:25:49 24° SW 07:31:14 10° S daylight
14 Apr - 19:30:03 10° S 19:43:57 22° SE 19:59:15 10° E visible
14 Apr - 21:46:53 10° SW 22:08:23 57° SE 22:28:36 10° ENE visible
